| time (UTC) | temp F | wind direction | speed MPH | gust MPH | rain 1hr in | rain 24hr in | rain mn in | humidity % | barometer mb |
| 20260504204530 | 73 | 237 | 3.0 | 10.0 | 0.00 | 0.00 | 0.00 | 39 | 1008.3 |
| 20260504203051 | 72 | 200 | 5.0 | 13.0 | 0.00 | 0.00 | 0.00 | 38 | 1008.2 |
| 20260504201518 | 72 | 226 | 5.0 | 17.0 | 0.00 | 0.00 | 0.00 | 38 | 1008.3 |
| 20260504200506 | 73 | 149 | 5.0 | 16.0 | 0.00 | 0.00 | 0.00 | 37 | 1009.0 |
| 20260504200121 | 72 | 121 | 4.0 | 10.0 | 0.00 | 0.00 | 0.00 | 38 | 1008.3 |
| 20260504194558 | 72 | 155 | 4.0 | 13.0 | 0.00 | 0.00 | 0.00 | 39 | 1008.4 |
| 20260504194505 | 72 | 243 | 6.0 | 13.0 | 0.00 | 0.00 | 0.00 | 38 | 1009.2 |
| 20260504193503 | 72 | 193 | 7.0 | 15.0 | 0.00 | 0.00 | 0.00 | 38 | 1009.2 |
| 20260504193007 | 72 | 229 | 6.0 | 15.0 | 0.00 | 0.00 | 0.00 | 38 | 1008.5 |
| 20260504191540 | 72 | 244 | 4.0 | 9.0 | 0.00 | 0.00 | 0.00 | 39 | 1008.6 |
| 20260504191010 | 72 | 211 | 4.0 | 10.0 | 0.00 | 0.00 | 0.00 | 40 | 1009.6 |
| 20260504190105 | 72 | 272 | 5.0 | 14.0 | 0.00 | 0.00 | 0.00 | 39 | 1009.0 |
| 20260504184607 | 71 | 223 | 8.0 | 13.0 | 0.00 | 0.00 | 0.00 | 37 | 1009.2 |
| 20260504183050 | 71 | 188 | 9.0 | 19.0 | 0.00 | 0.00 | 0.00 | 38 | 1009.4 |
| 20260504181546 | 71 | 194 | 7.0 | 14.0 | 0.00 | 0.00 | 0.00 | 39 | 1009.6 |
| 20260504180107 | 70 | 151 | 4.0 | 11.0 | 0.00 | 0.00 | 0.00 | 40 | 1009.8 |
| 20260504175506 | 70 | 202 | 6.0 | 17.0 | 0.00 | 0.00 | 0.00 | 41 | 1010.5 |
| 20260504175004 | 70 | 188 | 7.0 | 17.0 | 0.00 | 0.00 | 0.00 | 41 | 1010.7 |
| 20260504173018 | 69 | 146 | 10.0 | 20.0 | 0.00 | 0.00 | 0.00 | 41 | 1010.1 |
| 20260504173005 | 70 | 166 | 7.0 | 17.0 | 0.00 | 0.00 | 0.00 | 41 | 1010.9 |
| 20260504171511 | 69 | 257 | 5.0 | 13.0 | 0.00 | 0.00 | 0.00 | 43 | 1010.3 |
| 20260504171506 | 69 | 237 | 7.0 | 23.0 | 0.00 | 0.00 | 0.00 | 43 | 1011.0 |
| 20260504171004 | 69 | 230 | 7.0 | 23.0 | 0.00 | 0.00 | 0.00 | 43 | 1011.2 |
| 20260504170142 | 68 | 213 | 6.0 | 18.0 | 0.00 | 0.00 | 0.00 | 42 | 1010.6 |
| 20260504160108 | 67 | 172 | 5.0 | 11.0 | 0.00 | 0.00 | 0.00 | 41 | 1011.5 |
| 20260504150507 | 65 | 189 | 8.0 | 15.0 | 0.00 | 0.00 | 0.00 | 49 | 1012.6 |
| 20260504150119 | 65 | 180 | 7.0 | 12.0 | 0.00 | 0.00 | 0.00 | 46 | 1011.9 |
| 20260504140527 | 62 | 234 | 4.0 | 12.0 | 0.00 | 0.00 | 0.00 | 58 | 1012.9 |
| 20260504130506 | 59 | 204 | 6.0 | 11.0 | 0.00 | 0.00 | 0.00 | 62 | 1013.3 |
| 20260504120157 | 54 | 181 | 6.0 | 12.0 | 0.00 | 0.00 | 0.00 | 72 | 1013.0 |
| 20260504100503 | 47 | 173 | 4.0 | 9.0 | 0.00 | 0.00 | 0.00 | 75 | 1013.6 |
| 20260504090125 | 46 | 140 | 2.0 | 4.0 | 0.00 | 0.00 | 0.00 | 64 | 1013.0 |
| 20260504081636 | 47 | 205 | 0.0 | 2.0 | 0.00 | 0.00 | 0.00 | 61 | 1013.0 |
| 20260504044519 | 51 | 208 | 2.0 | 6.0 | 0.00 | 0.00 | 0.00 | 53 | 1012.7 |
| 20260504043114 | 51 | 192 | 2.0 | 6.0 | 0.00 | 0.00 | 0.00 | 53 | 1012.4 |
| 20260504042504 | 52 | 194 | 3.0 | 7.0 | 0.00 | 0.00 | 0.00 | 53 | 1013.0 |
| 20260504042007 | 52 | 186 | 3.0 | 8.0 | 0.00 | 0.00 | 0.00 | 53 | 1012.9 |
| 20260504041549 | 51 | 173 | 2.0 | 8.0 | 0.00 | 0.00 | 0.00 | 53 | 1012.3 |
| 20260504040504 | 52 | 183 | 3.0 | 6.0 | 0.00 | 0.00 | 0.00 | 53 | 1012.8 |
| 20260504035044 | 52 | 173 | 2.0 | 6.0 | 0.00 | 0.00 | 0.00 | 52 | 1012.7 |
| 20260504034545 | 52 | 171 | 2.0 | 6.0 | 0.00 | 0.00 | 0.00 | 52 | 1012.1 |
| 20260504033107 | 52 | 166 | 1.0 | 5.0 | 0.00 | 0.00 | 0.00 | 52 | 1012.1 |
| 20260504031536 | 52 | 196 | 2.0 | 7.0 | 0.00 | 0.00 | 0.00 | 51 | 1012.0 |
| 20260504031532 | 53 | 165 | 3.0 | 7.0 | 0.00 | 0.00 | 0.00 | 51 | 1012.6 |
| 20260504030114 | 52 | 161 | 3.0 | 5.0 | 0.00 | 0.00 | 0.00 | 51 | 1011.9 |
| 20260504025024 | 53 | 183 | 2.0 | 6.0 | 0.00 | 0.00 | 0.00 | 50 | 1012.5 |
| 20260504024649 | 52 | 144 | 2.0 | 6.0 | 0.00 | 0.00 | 0.00 | 50 | 1011.9 |
| 20260504023100 | 53 | 217 | 3.0 | 7.0 | 0.00 | 0.00 | 0.00 | 49 | 1011.9 |
| 20260504021537 | 53 | 199 | 2.0 | 5.0 | 0.00 | 0.00 | 0.00 | 48 | 1011.9 |
| 20260504021506 | 53 | 189 | 3.0 | 3.0 | 0.00 | 0.00 | 0.00 | 49 | 1012.5 |
| 20260504020041 | 53 | 174 | 2.0 | 5.0 | 0.00 | 0.00 | 0.00 | 48 | 1011.9 |
| 20260504014541 | 54 | 175 | 3.0 | 5.0 | 0.00 | 0.00 | 0.00 | 47 | 1012.4 |
| 20260504014004 | 54 | 181 | 3.0 | 7.0 | 0.00 | 0.00 | 0.00 | 47 | 1012.4 |
| 20260504013116 | 54 | 180 | 2.0 | 5.0 | 0.00 | 0.00 | 0.00 | 47 | 1011.7 |
| 20260504012504 | 54 | 170 | 3.0 | 6.0 | 0.00 | 0.00 | 0.00 | 47 | 1012.3 |
| 20260504011516 | 54 | 169 | 2.0 | 5.0 | 0.00 | 0.00 | 0.00 | 46 | 1011.6 |
| 20260504010012 | 54 | 186 | 1.0 | 5.0 | 0.00 | 0.00 | 0.00 | 45 | 1011.3 |
| 20260504005503 | 55 | 179 | 2.0 | 4.0 | 0.00 | 0.00 | 0.00 | 45 | 1011.8 |
| 20260504004540 | 55 | 157 | 2.0 | 6.0 | 0.00 | 0.00 | 0.00 | 44 | 1011.1 |
| 20260504004504 | 56 | 169 | 2.0 | 6.0 | 0.00 | 0.00 | 0.00 | 43 | 1011.7 |
| 20260504003512 | 56 | 196 | 2.0 | 5.0 | 0.00 | 0.00 | 0.00 | 42 | 1011.7 |
| 20260504001619 | 57 | 238 | 2.0 | 7.0 | 0.00 | 0.00 | 0.00 | 41 | 1010.9 |
| 20260504001503 | 57 | 195 | 2.0 | 7.0 | 0.00 | 0.00 | 0.00 | 41 | 1011.4 |
| 20260503235003 | 58 | 237 | 3.0 | 10.0 | 0.00 | 0.00 | 0.00 | 39 | 1011.3 |
| 20260503234609 | 58 | 285 | 2.0 | 10.0 | 0.00 | 0.00 | 0.00 | 39 | 1010.6 |
| 20260503233505 | 59 | 214 | 2.0 | 8.0 | 0.00 | 0.00 | 0.00 | 38 | 1011.1 |
| 20260503233004 | 59 | 235 | 1.0 | 8.0 | 0.00 | 0.00 | 0.00 | 38 | 1010.4 |
| 20260503230047 | 60 | 249 | 3.0 | 10.0 | 0.00 | 0.00 | 0.00 | 36 | 1010.3 |
| 20260503225503 | 60 | 257 | 5.0 | 15.0 | 0.00 | 0.00 | 0.00 | 35 | 1010.9 |
| 20260503224547 | 60 | 262 | 5.0 | 15.0 | 0.00 | 0.00 | 0.00 | 34 | 1010.2 |
| 20260503223123 | 61 | 275 | 2.0 | 11.0 | 0.00 | 0.00 | 0.00 | 35 | 1010.1 |
| 20260503221507 | 61 | 252 | 3.0 | 10.0 | 0.00 | 0.00 | 0.00 | 34 | 1010.1 |
| 20260503221004 | 61 | 320 | 4.0 | 11.0 | 0.00 | 0.00 | 0.00 | 34 | 1010.8 |
| 20260503220048 | 61 | 317 | 3.0 | 14.0 | 0.00 | 0.00 | 0.00 | 35 | 1010.2 |
| 20260503220004 | 61 | 304 | 4.0 | 14.0 | 0.00 | 0.00 | 0.00 | 33 | 1010.8 |
| 20260503214516 | 60 | 321 | 4.0 | 13.0 | 0.00 | 0.00 | 0.00 | 34 | 1010.1 |
| 20260503214004 | 61 | 298 | 5.0 | 12.0 | 0.00 | 0.00 | 0.00 | 35 | 1010.8 |
| 20260503213504 | 61 | 285 | 6.0 | 12.0 | 0.00 | 0.00 | 0.00 | 35 | 1010.8 |
| 20260503213046 | 60 | 236 | 7.0 | 12.0 | 0.00 | 0.00 | 0.00 | 35 | 1010.1 |
| 20260503212006 | 60 | 290 | 7.0 | 15.0 | 0.00 | 0.00 | 0.00 | 37 | 1010.7 |
| 20260503211526 | 59 | 319 | 5.0 | 15.0 | 0.00 | 0.00 | 0.00 | 37 | 1010.0 |
| 20260503210512 | 60 | 325 | 7.0 | 14.0 | 0.00 | 0.00 | 0.00 | 36 | 1010.7 |
| 20260503210119 | 59 | 330 | 8.0 | 14.0 | 0.00 | 0.00 | 0.00 | 35 | 1010.1 |
| 20260503205504 | 59 | 326 | 6.0 | 19.0 | 0.00 | 0.00 | 0.00 | 35 | 1010.9 |